| time (UTC) | temp F | wind direction | speed MPH | gust MPH | rain 1hr in | rain 24hr in | rain mn in | humidity % | barometer mb |
| 20260502151541 | 74 | 351 | 6.0 | 10.0 | 0.00 | 0.00 | 0.00 | 58 | 1011.1 |
| 20260502123030 | 74 | 304 | 3.0 | 10.0 | 0.00 | 0.00 | 0.00 | 61 | 1012.9 |
| 20260502121522 | 75 | 255 | 3.0 | 11.0 | 0.00 | 0.00 | 0.00 | 59 | 1013.2 |
| 20260502114517 | 74 | 9 | 5.0 | 10.0 | 0.00 | 0.00 | 0.00 | 59 | 1013.7 |
| 20260502113017 | 74 | 323 | 6.0 | 14.0 | 0.00 | 0.00 | 0.00 | 59 | 1013.7 |
| 20260502111518 | 74 | 360 | 6.0 | 15.0 | 0.00 | 0.00 | 0.00 | 58 | 1014.0 |
| 20260502110014 | 74 | 319 | 7.0 | 18.0 | 0.00 | 0.00 | 0.00 | 57 | 1014.2 |
| 20260502104611 | 77 | 294 | 1.0 | 13.0 | 0.00 | 0.00 | 0.00 | 55 | 1014.4 |
| 20260502103010 | 78 | 282 | 2.0 | 9.0 | 0.00 | 0.00 | 0.00 | 54 | 1014.2 |
| 20260502101510 | 78 | 333 | 2.0 | 9.0 | 0.00 | 0.00 | 0.00 | 53 | 1013.9 |
| 20260502091505 | 81 | 298 | 1.0 | 5.0 | 0.00 | 0.00 | 0.00 | 46 | 1014.0 |
| 20260502070038 | 73 | 360 | 4.0 | 8.0 | 0.00 | 0.00 | 0.00 | 52 | 1015.1 |
| 20260502064535 | 73 | 126 | 4.0 | 8.0 | 0.00 | 0.00 | 0.00 | 54 | 1015.3 |
| 20260502063031 | 72 | 360 | 2.0 | 8.0 | 0.00 | 0.00 | 0.00 | 56 | 1015.5 |
| 20260502061529 | 71 | 178 | 4.0 | 8.0 | 0.00 | 0.00 | 0.00 | 57 | 1015.4 |
| 20260502060023 | 71 | 360 | 2.0 | 7.0 | 0.00 | 0.00 | 0.00 | 60 | 1015.5 |
| 20260502054621 | 70 | 360 | 3.0 | 8.0 | 0.00 | 0.00 | 0.00 | 60 | 1015.6 |
| 20260502053018 | 70 | 360 | 3.0 | 8.0 | 0.00 | 0.00 | 0.00 | 61 | 1015.5 |
| 20260502051514 | 68 | 120 | 4.0 | 8.0 | 0.00 | 0.00 | 0.00 | 64 | 1015.4 |
| 20260502050009 | 67 | 138 | 3.0 | 8.0 | 0.00 | 0.00 | 0.00 | 68 | 1015.3 |
| 20260502044505 | 65 | 145 | 2.0 | 6.0 | 0.00 | 0.00 | 0.00 | 73 | 1015.1 |
| 20260502043001 | 63 | 50 | 0.0 | 2.0 | 0.00 | 0.00 | 0.00 | 76 | 1015.1 |
| 20260502041634 | 61 | 50 | 0.0 | 1.0 | 0.00 | 0.00 | 0.00 | 76 | 1014.8 |
| 20260502040056 | 61 | 50 | 1.0 | 2.0 | 0.00 | 0.00 | 0.00 | 76 | 1015.2 |
| 20260502034553 | 59 | 49 | 0.0 | 0.0 | 0.00 | 0.00 | 0.00 | 77 | 1015.3 |
| 20260502033102 | 57 | 50 | 0.0 | 2.0 | 0.00 | 0.00 | 0.00 | 76 | 1015.2 |
| 20260502031544 | 57 | 9 | 1.0 | 2.0 | 0.00 | 0.00 | 0.00 | 75 | 1014.9 |
| 20260502030041 | 58 | 9 | 0.0 | 2.0 | 0.00 | 0.00 | 0.00 | 75 | 1015.0 |
| 20260502024540 | 58 | 10 | 0.0 | 0.0 | 0.00 | 0.00 | 0.00 | 75 | 1014.8 |
| 20260502023042 | 59 | 9 | 0.0 | 0.0 | 0.00 | 0.00 | 0.00 | 75 | 1014.8 |
| 20260502021539 | 59 | 9 | 0.0 | 2.0 | 0.00 | 0.00 | 0.00 | 76 | 1014.5 |
| 20260502020038 | 59 | 9 | 0.0 | 0.0 | 0.00 | 0.00 | 0.00 | 76 | 1014.3 |
| 20260502014537 | 59 | 9 | 0.0 | 0.0 | 0.00 | 0.00 | 0.00 | 76 | 1014.3 |
| 20260502013037 | 58 | 9 | 0.0 | 0.0 | 0.00 | 0.00 | 0.00 | 76 | 1014.3 |
| 20260502011536 | 58 | 9 | 0.0 | 0.0 | 0.00 | 0.00 | 0.00 | 75 | 1014.4 |
| 20260502010036 | 58 | 9 | 0.0 | 0.0 | 0.00 | 0.00 | 0.00 | 75 | 1014.5 |
| 20260502004533 | 59 | 9 | 0.0 | 0.0 | 0.00 | 0.00 | 0.00 | 75 | 1014.6 |
| 20260502003035 | 59 | 9 | 0.0 | 0.0 | 0.00 | 0.00 | 0.00 | 74 | 1014.8 |
| 20260502001531 | 59 | 9 | 0.0 | 0.0 | 0.00 | 0.00 | 0.00 | 75 | 1014.8 |
| 20260502000030 | 60 | 9 | 0.0 | 1.0 | 0.00 | 0.00 | 0.00 | 75 | 1014.9 |
| 20260501234530 | 59 | 9 | 0.0 | 0.0 | 0.00 | 0.00 | 0.00 | 75 | 1014.7 |
| 20260501233029 | 59 | 9 | 0.0 | 0.0 | 0.00 | 0.00 | 0.00 | 75 | 1015.0 |
| 20260501231541 | 59 | 9 | 0.0 | 0.0 | 0.00 | 0.00 | 0.00 | 75 | 1015.0 |
| 20260501230025 | 58 | 9 | 0.0 | 0.0 | 0.00 | 0.00 | 0.00 | 74 | 1015.4 |
| 20260501224522 | 59 | 9 | 0.0 | 1.0 | 0.00 | 0.00 | 0.00 | 74 | 1015.7 |
| 20260501223024 | 60 | 9 | 0.0 | 0.0 | 0.00 | 0.00 | 0.00 | 73 | 1015.9 |
| 20260501221523 | 60 | 11 | 1.0 | 2.0 | 0.00 | 0.00 | 0.00 | 73 | 1015.9 |
| 20260501220018 | 60 | 9 | 1.0 | 3.0 | 0.00 | 0.00 | 0.00 | 74 | 1015.9 |
| 20260501214517 | 60 | 9 | 1.0 | 2.0 | 0.00 | 0.00 | 0.00 | 73 | 1016.0 |
| 20260501213014 | 61 | 9 | 0.0 | 2.0 | 0.00 | 0.00 | 0.00 | 73 | 1015.8 |
| 20260501210010 | 62 | 9 | 0.0 | 2.0 | 0.00 | 0.00 | 0.00 | 72 | 1015.8 |
| 20260501204513 | 62 | 9 | 1.0 | 3.0 | 0.00 | 0.00 | 0.00 | 72 | 1015.8 |
| 20260501203008 | 62 | 9 | 1.0 | 3.0 | 0.00 | 0.00 | 0.00 | 72 | 1016.1 |
| 20260501201506 | 63 | 11 | 0.0 | 0.0 | 0.00 | 0.00 | 0.00 | 72 | 1016.2 |
| 20260501200005 | 63 | 12 | 0.0 | 0.0 | 0.00 | 0.00 | 0.00 | 72 | 1016.1 |
| 20260501194505 | 63 | 12 | 0.0 | 0.0 | 0.00 | 0.00 | 0.00 | 72 | 1016.1 |
| 20260501193006 | 64 | 13 | 0.0 | 0.0 | 0.00 | 0.00 | 0.00 | 72 | 1016.3 |
| 20260501191504 | 64 | 12 | 0.0 | 0.0 | 0.00 | 0.00 | 0.00 | 71 | 1016.0 |
| 20260501190006 | 65 | 12 | 0.0 | 0.0 | 0.00 | 0.00 | 0.00 | 71 | 1016.1 |
| 20260501184503 | 64 | 13 | 0.0 | 0.0 | 0.00 | 0.00 | 0.00 | 71 | 1016.2 |
| 20260501183006 | 65 | 11 | 0.0 | 0.0 | 0.00 | 0.00 | 0.00 | 70 | 1016.1 |
| 20260501181502 | 65 | 11 | 0.0 | 1.0 | 0.00 | 0.00 | 0.00 | 70 | 1016.0 |
| 20260501180003 | 66 | 11 | 0.0 | 0.0 | 0.00 | 0.00 | 0.00 | 69 | 1015.8 |
| 20260501174501 | 66 | 11 | 0.0 | 1.0 | 0.00 | 0.00 | 0.00 | 69 | 1015.8 |
| 20260501173001 | 66 | 11 | 0.0 | 2.0 | 0.00 | 0.00 | 0.00 | 69 | 1015.7 |
| 20260501171501 | 67 | 11 | 0.0 | 2.0 | 0.00 | 0.00 | 0.00 | 69 | 1015.6 |
| 20260501164600 | 67 | 12 | 0.0 | 0.0 | 0.00 | 0.00 | 0.00 | 67 | 1015.4 |
| 20260501163101 | 68 | 11 | 0.0 | 1.0 | 0.00 | 0.00 | 0.00 | 66 | 1015.2 |
| 20260501161608 | 69 | 11 | 0.0 | 1.0 | 0.00 | 0.00 | 0.00 | 65 | 1014.9 |
| 20260501160106 | 69 | 11 | 0.0 | 3.0 | 0.00 | 0.00 | 0.00 | 64 | 1014.8 |
| 20260501154601 | 70 | 11 | 0.0 | 2.0 | 0.00 | 0.00 | 0.00 | 64 | 1014.8 |
| 20260501153057 | 71 | 12 | 0.0 | 3.0 | 0.00 | 0.00 | 0.00 | 63 | 1014.8 |